SATCOM 3 DEB, 49955

Orbit data source: Space-Track

SATCOM 3 DEB, 49955 is space debris in HEO originally from a launch on Fri, 07 Dec 1979 UTC launched from the Air Force Eastern Test Range (AFETR). Debris objects in space refer to the collection of defunct objects orbiting the Earth. Examples of debris include non-operational satellites, rocket bodies, and fragments generated from explosions, collisions, or faulty payload assembly.

Loading next visibility...
Identifier
49955, 1979-101Z
Orbit
HEO
Country
Flag of USUS
Related business
Manufacturer
Unknown
Mission
Spacecraft
Bus & Motor
Unknown
Mass
Unknown
Launch date (UTC)
1979-12-07 (47 years ago)
Launch vehicle
Unknown
Launch site
Air Force Eastern Test Range (AFETR)
Object type
Payload
Rocket body
Debris
Shape & HBR
Unknown shape, 1.1 m
Radar Cross Section
Medium (>0.1 m² and <1 m²)

Expand to show TLE details & history
Last TLE update: 2 days ago

TLE from 2 days ago
0 SATCOM 3 DEB
1 49955U 79101Z   26167.90282615 -.00000102  00000-0  00000-0 0  9999
2 49955   8.2552 102.4451 4769021  70.3690 333.7325  1.81782815 78627
Epoch: 2026-06-16T21:40Z
TLE epoch observation values (Epoch: 2026-06-16T21:40:04.179Z)
Latitude
0.00001°
Longitude
-127.96176°
Altitude
12,560.549 km
Speed
5.295 km/s
True Right ascension
06h 48m 53s
True Declination
0° 00' 00"
Sunlit
Object was in daylight at epoch
Visualization orbit readout
Latitude
Unknown
Longitude
Unknown
Altitude
Unknown
Speed
Unknown
Apparent Right ascension
Unknown
Apparent Declination
Unknown
Sunlit
N/A
Visualization observer readout
Local Sidereal Time
20:27:42
Azimuth
Unknown
Elevation
Unknown
Doppler factor
Unknown
Orbital elements
Apogee altitude
35,509.501 km
Perigee altitude
8,457.874 km
Semi-major axis
28,361.824 km
Eccentricity
0.4769
Inclination
8.2552°
RAAN
102.4451°
Arg. of periapsis
70.369°
True anomaly
289.15529°
Mean anomaly
333.7325°
Eccentric anomaly
314.11508°
Mean motion
0.4544 °/min
Orbital period
792.25 mins
BSTAR
0
Loading maneuver chart data...
Computing Atmospheric mass density...
Loading historical data...
Loading historical data...
Loading historical data...
Loading historical data...
Loading historical data...
Loading historical data...
Loading historical data...

Documentation

Showing up to 5 results
|